H1 CPF 2 NER 2023 12 19 9 353 01 glonass146 H2 2216101 9146 54377 2023 12 19 0 0 0 2023 12 22 23 45 0 900 1 1 0 0 0 1 H9 10 0 60297 0.00000 0 -18048964.898 6528637.508 16821447.570 10 0 60297 900.00000 0 -16454718.092 5009709.130 18852430.055 10 0 60297 1800.00000 0 -14830245.734 3203500.445 20517764.534 10 0 60297 2700.00000 0 -13236028.883 1137310.005 21785087.930 10 0 60297 3600.00000 0 -11727743.961 -1149986.800 22629735.793 10 0 60297 4500.00000 0 -10353991.161 -3609300.166 23035223.822 10 0 60297 5400.00000 0 -9154336.315 -6183121.102 22993573.113 10 0 60297 6300.00000 0 -8157747.760 -8807676.611 22505472.584 10 0 60297 7200.00000 0 -7381493.426 -11415356.798 21580274.936 10 0 60297 8100.00000 0 -6830544.221 -13937314.376 20235825.520 10 0 60297 9000.00000 0 -6497508.814 -16306129.513 18498126.468 10 0 60297 9900.00000 0 -6363102.688 -18458429.734 16400841.619 10 0 60297 10800.00000 0 -6397131.913 -20337356.024 13984650.809 10 0 60297 11700.00000 0 -6559950.298 -21894772.196 11296465.188 10 0 60297 12600.00000 0 -6804328.410 -23093124.884 8388518.174 10 0 60297 13500.00000 0 -7077655.240 -23906875.843 5317349.377 10 0 60297 14400.00000 0 -7324378.840 -24323446.091 2142701.297 10 0 60297 15300.00000 0 -7488581.779 -24343631.816 -1073649.282 10 0 60297 16200.00000 0 -7516581.212 -23981474.454 -4269101.709 10 0 60297 17100.00000 0 -7359442.099 -23263590.483 -7381459.157 10 0 60297 18000.00000 0 -6975295.695 -22227989.606 -10350148.516 10 0 60297 18900.00000 0 -6331363.701 -20922431.760 -13117407.619 10 0 60297 19800.00000 0 -5405601.127 -19402393.026 -15629415.781 10 0 60297 20700.00000 0 -4187887.239 -17728727.066 -17837344.835 10 0 60297 21600.00000 0 -2680713.394 -15965121.362 -19698309.895 10 0 60297 22500.00000 0 -899337.951 -14175455.920 -21176201.281 10 0 60297 23400.00000 0 1128598.803 -12421175.804 -22242381.751 10 0 60297 24300.00000 0 3363984.078 -10758787.776 -22876236.050 10 0 60297 25200.00000 0 5757628.656 -9237585.600 -23065562.918 10 0 60297 26100.00000 0 8252091.645 -7897698.520 -22806802.780 10 0 60297 27000.00000 0 10783858.170 -6768543.473 -22105097.565 10 0 60297 27900.00000 0 13285779.703 -5867744.360 -20974182.250 10 0 60297 28800.00000 0 15689675.944 -5200562.071 -19436110.826 10 0 60297 29700.00000 0 17928990.590 -4759857.415 -17520822.397 10 0 60297 30600.00000 0 19941391.191 -4526586.902 -15265556.039 10 0 60297 31500.00000 0 21671205.626 -4470809.091 -12714125.792 10 0 60297 32400.00000 0 23071594.537 -4553157.926 -9916069.802 10 0 60297 33300.00000 0 24106370.035 -4726720.093 -6925689.885 10 0 60297 34200.00000 0 24751385.615 -4939236.542 -3801000.009 10 0 60297 35100.00000 0 24995440.035 -5135534.889 -602603.863 10 0 60297 36000.00000 0 24840658.136 -5260089.741 2607476.919 10 0 60297 36900.00000 0 24302333.267 -5259602.690 5767001.295 10 0 60297 37800.00000 0 23408238.433 -5085492.964 8814711.068 10 0 60297 38700.00000 0 22197435.306 -4696193.422 11691513.768 10 0 60297 39600.00000 0 20718631.128 -4059154.816 14341623.480 10 0 60297 40500.00000 0 19028152.217 -3152473.364 16713637.859 10 0 60297 41400.00000 0 17187618.634 -1966072.458 18761530.886 10 0 60297 42300.00000 0 15261416.823 -502387.814 20445542.524 10 0 60297 43200.00000 0 13314075.304 1223473.968 21732948.544 10 0 60297 44100.00000 0 11407652.391 3184111.643 22598695.938 10 0 60297 45000.00000 0 9599244.307 5340726.449 23025891.874 10 0 60297 45900.00000 0 7938717.065 7644504.516 23006136.748 10 0 60297 46800.00000 0 6466756.204 10038428.905 22539694.673 10 0 60297 47700.00000 0 5213315.371 12459447.505 21635497.629 10 0 60297 48600.00000 0 4196528.234 14840908.104 20310982.483 10 0 60297 49500.00000 0 3422129.049 17115160.455 18591763.092 10 0 60297 50400.00000 0 2883406.062 19216217.732 16511142.858 10 0 60297 51300.00000 0 2561689.597 21082366.776 14109476.155 10 0 60297 52200.00000 0 2427354.232 22658618.189 11433390.123 10 0 60297 53100.00000 0 2441292.650 23898893.449 8534881.301 10 0 60297 54000.00000 0 2556798.588 24767856.906 5470304.315 10 0 60297 54900.00000 0 2721778.712 25242315.144 2299272.303 10 0 60297 55800.00000 0 2881198.996 25312124.264 -916509.071 10 0 60297 56700.00000 0 2979660.879 24980566.450 -4114450.592 10 0 60297 57600.00000 0 2963996.792 24264179.682 -7232306.942 10 0 60297 58500.00000 0 2785773.650 23192047.800 -10209397.561 10 0 60297 59400.00000 0 2403596.815 21804581.119 -12987796.046 10 0 60297 60300.00000 0 1785115.664 20151839.505 -15513463.983 10 0 60297 61200.00000 0 908644.681 18291469.183 -17737306.371 10 0 60297 62100.00000 0 -235669.383 16286340.781 -19616127.707 10 0 60297 63000.00000 0 -1645184.363 14201988.447 -21113470.104 10 0 60297 63900.00000 0 -3304632.059 12103957.963 -22200317.398 10 0 60297 64800.00000 0 -5186526.113 10055175.044 -22855652.152 10 0 60297 65700.00000 0 -7252091.682 8113443.760 -23066855.508 10 0 60297 66600.00000 0 -9452678.256 6329179.000 -22829942.983 10 0 60297 67500.00000 0 -11731596.942 4743466.702 -22149632.512 10 0 60297 68400.00000 0 -14026305.848 3386531.477 -21039244.153 10 0 60297 69300.00000 0 -16270852.853 2276674.004 -19520434.049 10 0 60297 70200.00000 0 -18398474.431 1419720.851 -17622768.183 10 0 60297 71100.00000 0 -20344242.786 809007.837 -15383144.414 10 0 60297 72000.00000 0 -22047651.558 425895.926 -12845074.051 10 0 60297 72900.00000 0 -23455032.902 240796.362 -10057836.812 10 0 60297 73800.00000 0 -24521705.772 214660.622 -7075525.374 10 0 60297 74700.00000 0 -25213766.273 300871.398 -3955997.851 10 0 60297 75600.00000 0 -25509445.883 447454.136 -759758.340 10 0 60297 76500.00000 0 -25399981.251 599515.313 2451212.985 10 0 60297 77400.00000 0 -24889959.581 701804.203 5614657.655 10 0 60297 78300.00000 0 -23997125.457 701289.780 8669241.530 10 0 60297 79200.00000 0 -22751657.344 549643.821 11555739.187 10 0 60297 80100.00000 0 -21194944.018 205525.259 14218177.313 10 0 60297 81000.00000 0 -19377911.939 -363430.843 16604915.315 10 0 60297 81900.00000 0 -17358973.100 -1179003.961 18669642.628 10 0 60297 82800.00000 0 -15201678.566 -2251226.845 20372273.799 10 0 60297 83700.00000 0 -12972174.964 -3577722.155 21679724.500 10 0 60297 84600.00000 0 -10736569.237 -5143566.134 22566553.819 10 0 60297 85500.00000 0 -8558310.689 -6921686.613 23015460.611 10 0 60298 0.00000 0 -6495698.796 -8873780.283 23017624.393 10 0 60298 900.00000 0 -4599618.762 -10951713.896 22572883.893 10 0 60298 1800.00000 0 -2911601.288 -13099350.053 21689749.418 10 0 60298 2700.00000 0 -1462283.305 -15254726.568 20385248.098 10 0 60298 3600.00000 0 -270336.290 -17352497.317 18684603.980 10 0 60298 4500.00000 0 658094.403 -19326534.704 16620758.226 10 0 60298 5400.00000 0 1329415.761 -21112585.453 14233737.708 10 0 60298 6300.00000 0 1762078.033 -22650868.859 11569883.299 10 0 60298 7200.00000 0 1985552.020 -23888508.397 8680952.229 10 0 60298 8100.00000 0 2038836.316 -24781694.212 5623111.577 10 0 60298 9000.00000 0 1968558.105 -25297484.883 2455842.479 10 0 60298 9900.00000 0 1826748.670 -25415171.857 -759223.206 10 0 60298 10800.00000 0 1668388.838 -25127148.359 -3959510.389 10 0 60298 11700.00000 0 1548829.594 -24439245.519 -7082727.932 10 0 60298 12600.00000 0 1521198.522 -23370521.225 -10068090.455 10 0 60298 13500.00000 0 1633903.414 -21952510.488 -12857509.874 10 0 60298 14400.00000 0 1928340.088 -20227969.080 -15396732.481 10 0 60298 15300.00000 0 2436902.675 -18249163.727 -17636398.682 10 0 60298 16200.00000 0 3181381.472 -16075781.249 -19533004.339 10 0 60298 17100.00000 0 4171816.806 -13772544.923 -21049744.989 10 0 60298 18000.00000 0 5405857.791 -11406638.394 -22157226.763 10 0 60298 18900.00000 0 6868653.356 -9045045.144 -22834030.793 10 0 60298 19800.00000 0 8533280.434 -6751914.538 -23067120.899 10 0 60298 20700.00000 0 10361691.507 -4586063.943 -22852087.508 10 0 60298 21600.00000 0 12306142.078 -2598720.212 -22193223.930 10 0 60298 22500.00000 0 14311038.572 -831593.434 -21103434.298 10 0 60298 23400.00000 0 16315129.705 684638.253 -19603975.536 10 0 60298 24300.00000 0 18253950.186 1931371.376 -17724038.798 10 0 60298 25200.00000 0 20062415.106 2902605.719 -15500178.700 10 0 60298 26100.00000 0 21677457.150 3604938.609 -12975601.477 10 0 60298 27000.00000 0 23040596.969 4057026.961 -10199325.776 10 0 60298 27900.00000 0 24100339.790 4288541.280 -7225232.210 10 0 60298 28800.00000 0 24814298.513 4338656.972 -4111019.902 10 0 60298 29700.00000 0 25150954.904 4254147.527 -917090.088 10 0 60298 30600.00000 0 25090985.492 4087160.765 2294621.805 10 0 60298 31500.00000 0 24628096.873 3892772.423 5461843.080 10 0 60298 32400.00000 0 23769335.580 3726420.692 8523166.669 10 0 60298 33300.00000 0 22534859.485 3641330.136 11419236.921 10 0 60298 34200.00000 0 20957180.087 3686033.848 14093895.513 10 0 60298 35100.00000 0 19079907.048 3902098.485 16495265.633 10 0 60298 36000.00000 0 16956046.851 4322148.336 18576753.824 10 0 60298 36900.00000 0 14645925.950 4968272.042 20297950.510 10 0 60298 37800.00000 0 12214824.199 5850879.672 21625412.216 10 0 60298 38700.00000 0 9730416.227 6968059.144 22533310.729 10 0 60298 39600.00000 0 7260126.338 8305460.223 23003936.853 10 0 60298 40500.00000 0 4868506.056 9836712.478 23028049.096 10 0 60298 41400.00000 0 2614742.472 11524361.389 22605060.325 10 0 60298 42300.00000 0 550400.322 13321285.165 21743058.347 10 0 60298 43200.00000 0 -1282508.873 15172534.736 20458659.290 10 0 60298 44100.00000 0 -2853050.687 17017521.467 18776695.733 10 0 60298 45000.00000 0 -4142421.429 18792462.265 16729744.596 10 0 60298 45900.00000 0 -5144487.855 20432980.522 14357502.935 10 0 60298 46800.00000 0 -5865790.614 21876754.276 11706022.800 10 0 60298 47700.00000 0 -6325011.596 23066100.393 8826819.370 10 0 60298 48600.00000 0 -6551928.068 23950385.751 5775869.301 10 0 60298 49500.00000 0 -6585898.274 24488163.278 2612518.752 10 0 60298 50400.00000 0 -6473943.264 24648941.919 -601677.228 10 0 60298 51300.00000 0 -6268507.120 24414515.001 -3804160.665 10 0 60298 52200.00000 0 -6024991.570 23779790.071 -6932597.503 10 0 60298 53100.00000 0 -5799170.806 22753084.503 -9926100.299 10 0 60298 54000.00000 0 -5644597.372 21355873.989 -12726421.810 10 0 60298 54900.00000 0 -5610110.357 19622004.276 -15279095.299 10 0 60298 55800.00000 0 -5737552.558 17596399.432 -17534498.523 10 0 60298 56700.00000 0 -6059794.146 15333321.171 -19448820.330 10 0 60298 57600.00000 0 -6599147.081 12894252.564 -20984910.970 10 0 60298 58500.00000 0 -7366237.641 10345495.162 -22112999.827 10 0 60298 59400.00000 0 -8359384.853 7755580.138 -22811267.221 10 0 60298 60300.00000 0 -9564511.095 5192601.490 -23066259.903 10 0 60298 61200.00000 0 -10955588.612 2721582.157 -22873143.064 10 0 60298 62100.00000 0 -12495603.228 401982.046 -22235784.831 10 0 60298 63000.00000 0 -14137994.879 -1714549.367 -21166672.383 10 0 60298 63900.00000 0 -15828514.705 -3586083.667 -19686661.943 10 0 60298 64800.00000 0 -17507421.156 -5181909.447 -17824567.921 10 0 60298 65700.00000 0 -19111923.501 -6483553.087 -15616599.399 10 0 60298 66600.00000 0 -20578770.764 -7485283.637 -13105654.935 10 0 60298 67500.00000 0 -21846878.156 -8194082.635 -10340489.298 10 0 60298 68400.00000 0 -22859881.384 -8629081.900 -7374768.098 10 0 60298 69300.00000 0 -23568512.219 -8820494.470 -4266028.488 10 0 60298 70200.00000 0 -23932696.067 -8808084.921 -1074565.858 10 0 60298 71100.00000 0 -23923283.825 -8639244.493 2137732.062 10 0 60298 72000.00000 0 -23523345.538 -8366752.845 5308581.224 10 0 60298 72900.00000 0 -22728971.564 -8046321.298 8376504.413 10 0 60298 73800.00000 0 -21549547.478 -7734021.458 11282018.403 10 0 60298 74700.00000 0 -20007490.870 -7483707.818 13968782.339 10 0 60298 75600.00000 0 -18137460.452 -7344543.059 16384685.410 10 0 60298 76500.00000 0 -15985069.858 -7358730.439 18482853.189 10 0 60298 77400.00000 0 -13605158.921 -7559548.929 20222553.521 10 0 60298 78300.00000 0 -11059693.523 -7969774.113 21569984.908 10 0 60298 79200.00000 0 -8415380.333 -8600551.802 22498932.513 10 0 60298 80100.00000 0 -5741094.573 -9450772.543 22991279.317 10 0 60298 81000.00000 0 -3105226.583 -10506974.349 23037362.635 10 0 60298 81900.00000 0 -573056.398 -11743779.112 22636168.885 10 0 60298 82800.00000 0 1795735.481 -13124845.895 21795362.408 10 0 60298 83700.00000 0 3949318.407 -14604302.705 20531147.078 10 0 60298 84600.00000 0 5845630.006 -16128598.241 18867962.471 10 0 60298 85500.00000 0 7453883.133 -17638697.196 16838019.464 10 0 60299 0.00000 0 8755598.766 -19072527.877 14480683.461 10 0 60299 900.00000 0 9745122.519 -20367580.615 11841714.948 10 0 60299 1800.00000 0 10429601.741 -21463545.951 8972384.696 10 0 60299 2700.00000 0 10828426.873 -22304883.807 5928476.174 10 0 60299 3600.00000 0 10972159.299 -22843212.801 2769197.663 10 0 60299 4500.00000 0 10900992.361 -23039418.746 -443975.590 10 0 60299 5400.00000 0 10662811.388 -22865392.200 -3648505.723 10 0 60299 6300.00000 0 10310935.913 -22305320.581 -6782018.710 10 0 60299 7200.00000 0 9901640.908 -21356479.350 -9783527.866 10 0 60299 8100.00000 0 9491563.367 -20029488.088 -12594629.463 10 0 60299 9000.00000 0 9135105.347 -18348020.110 -15160646.182 10 0 60299 9900.00000 0 8881944.559 -16347977.614 -17431695.332 10 0 60299 10800.00000 0 8774758.773 -14076166.937 -19363660.628 10 0 60299 11700.00000 0 8847260.875 -11588529.613 -20919048.537 10 0 60299 12600.00000 0 9122627.937 -8948003.484 -22067712.774 10 0 60299 13500.00000 0 9612390.618 -6222103.361 -22787433.461 10 0 60299 14400.00000 0 10315829.615 -3480322.149 -23064340.422 10 0 60299 15300.00000 0 11219904.295 -791460.454 -22893173.295 10 0 60299 16200.00000 0 12299716.227 1779004.739 -22277374.267 10 0 60299 17100.00000 0 13519487.874 4171403.792 -21229012.423 10 0 60299 18000.00000 0 14834015.195 6334108.406 -19768541.802 10 0 60299 18900.00000 0 16190533.119 8225424.453 -17924398.276 10 0 60299 19800.00000 0 17530915.740 9815066.534 -15732443.303 10 0 60299 20700.00000 0 18794119.079 11085154.587 -13235265.409 10 0 60299 21600.00000 0 19918764.186 12030692.839 -10481352.873 10 0 60299 22500.00000 0 20845752.498 12659512.863 -7524153.473 10 0 60299 23400.00000 0 21520803.951 12991684.799 -4421039.379 10 0 60299 24300.00000 0 21896811.503 13058422.888 -1232197.032 10 0 60299 25200.00000 0 21935913.402 12900532.532 1980536.647 10 0 60299 26100.00000 0 21611196.176 12566465.100 5154869.291 10 0 60299 27000.00000 0 20907956.748 12110063.056 8229256.384 10 0 60299 27900.00000 0 19824470.445 11588090.776 11144089.727 10 0 60299 28800.00000 0 18372232.182 11057655.284 13842848.225 10 0 60299 29700.00000 0 16575660.061 10573625.627 16273189.056 10 0 60299 30600.00000 0 14471272.871 10186159.518 18387958.488 10 0 60299 31500.00000 0 12106374.804 9938441.358 20146103.141 10 0 60299 32400.00000 0 9537301.036 9864726.819 21513464.552 10 0 60299 33300.00000 0 6827295.929 9988776.408 22463442.019 10 0 60299 34200.00000 0 4044110.779 10322744.249 22977511.151 10 0 60299 35100.00000 0 1257419.654 10866569.388 23045588.184 10 0 60299 36000.00000 0 -1463840.663 11607896.117 22666232.831 10 0 60299 36900.00000 0 -4054097.161 12522527.758 21846685.313 10 0 60299 37800.00000 0 -6453625.398 13575396.130 20602736.171 10 0 60299 38700.00000 0 -8610789.989 14722007.298 18958430.482 10 0 60299 39600.00000 0 -10483948.025 15910304.062 16945611.180 10 0 60299 40500.00000 0 -12042936.412 17082867.855 14603309.332 10 0 60299 41400.00000 0 -13270081.234 18179368.095 11976992.203 10 0 60299 42300.00000 0 -14160687.069 19139156.057 9117683.058 10 0 60299 43200.00000 0 -14722985.969 19903893.742 6080969.357 10 0 60299 44100.00000 0 -14977548.631 20420106.268 2925918.611 10 0 60299 45000.00000 0 -14956183.103 20641549.072 -286076.639 10 0 60299 45900.00000 0 -14700368.292 20531288.780 -3492501.524 10 0 60299 46800.00000 0 -14259289.449 20063408.625 -6630944.868 10 0 60299 47700.00000 0 -13687559.893 19224265.117 -9640323.461 10 0 60299 48600.00000 0 -13042726.644 18013241.902 -12462079.644 10 0 60299 49500.00000 0 -12382666.804 16442968.137 -15041327.856 10 0 60299 50400.00000 0 -11762985.982 14538991.584 -17327927.030 10 0 60299 51300.00000 0 -11234529.715 12338919.835 -19277457.521 10 0 60299 52200.00000 0 -10841113.686 9891065.517 -20852083.462 10 0 60299 53100.00000 0 -10617568.866 7252652.190 -22021284.022 10 0 60299 54000.00000 0 -10588184.026 4487655.925 -22762439.896 10 0 60299 54900.00000 0 -10765610.940 1664372.507 -23061264.399 10 0 60299 55800.00000 0 -11150277.874 -1147188.573 -22912071.657 10 0 60299 56700.00000 0 -11730335.423 -3877975.409 -22317877.559 10 0 60299 57600.00000 0 -12482136.342 -6462519.907 -21290332.319 10 0 60299 58500.00000 0 -13371228.662 -8841410.780 -19849486.587 10 0 60299 59400.00000 0 -14353819.918 -10963511.792 -18023396.080 10 0 60299 60300.00000 0 -15378650.726 -12787834.469 -15847572.649 10 0 60299 61200.00000 0 -16389198.868 -14284988.913 -13364292.498 10 0 60299 62100.00000 0 -17326121.268 -15438153.959 -10621774.885 10 0 60299 63000.00000 0 -18129831.377 -16243527.881 -7673247.070 10 0 60299 63900.00000 0 -18743103.710 -16710242.395 -4575913.453 10 0 60299 64800.00000 0 -19113596.196 -16859745.070 -1389848.692 10 0 60299 65700.00000 0 -19196184.328 -16724677.291 1823163.946 10 0 60299 66600.00000 0 -18955008.972 -16347295.953 5000826.614 10 0 60299 67500.00000 0 -18365151.560 -15777505.981 8081530.309 10 0 60299 68400.00000 0 -17413865.984 -15070586.958 11005544.600 10 0 60299 69300.00000 0 -16101314.916 -14284709.775 13716170.785 10 0 60299 70200.00000 0 -14440778.950 -13478347.886 16160836.489 10 0 60299 71100.00000 0 -12458328.800 -12707691.961 18292110.874 10 0 60299 72000.00000 0 -10191973.089 -12024176.520 20068621.231 10 0 60299 72900.00000 0 -7690315.946 -11472222.336 21455853.651 10 0 60299 73800.00000 0 -5010778.830 -11087289.323 22426822.675 10 0 60299 74700.00000 0 -2217459.079 -10894321.741 22962597.227 10 0 60299 75600.00000 0 621287.352 -10906651.201 23052672.730 10 0 60299 76500.00000 0 3435440.028 -11125403.969 22695182.060 10 0 60299 77400.00000 0 6155978.579 -11539438.136 21896940.814 10 0 60299 78300.00000 0 8717508.095 -12125814.140 20673325.354 10 0 60299 79200.00000 0 11060737.112 -12850779.850 19047985.078 10 0 60299 80100.00000 0 13134705.636 -13671229.752 17052393.485 10 0 60299 81000.00000 0 14898670.745 -14536577.701 14725245.697 10 0 60299 81900.00000 0 16323571.244 -15390964.949 12111713.160 10 0 60299 82800.00000 0 17393010.139 -16175710.681 9262569.317 10 0 60299 83700.00000 0 18103713.882 -16831901.487 6233202.783 10 0 60299 84600.00000 0 18465449.213 -17303009.951 3082537.191 10 0 60299 85500.00000 0 18500401.472 -17537430.759 -128120.919 10 0 60300 0.00000 0 18242041.140 -17490826.025 -3336282.771 10 0 60300 900.00000 0 17733527.104 -17128179.223 -6479503.967 10 0 60300 1800.00000 0 17025715.481 -16425469.715 -9496607.713 10 0 60300 2700.00000 0 16174858.897 -15370895.734 -12328885.419 10 0 60300 3600.00000 0 15240094.960 -13965593.129 -14921246.018 10 0 60300 4500.00000 0 14280831.135 -12223818.684 -17223292.472 10 0 60300 5400.00000 0 13354137.501 -10172589.688 -19190303.816 10 0 60300 6300.00000 0 12512258.093 -7850794.416 -20784103.500 10 0 60300 7200.00000 0 11800346.164 -5307810.589 -21973797.357 10 0 60300 8100.00000 0 11254518.751 -2601689.392 -22736367.422 10 0 60300 9000.00000 0 10900312.062 203019.311 -23057110.800 10 0 60300 9900.00000 0 10751602.000 3037710.172 -22929915.939 10 0 60300 10800.00000 0 10810034.330 5832332.693 -22357371.831 10 0 60300 11700.00000 0 11064987.448 8518060.773 -21350708.813 10 0 60300 12600.00000 0 11494068.405 11029911.339 -19929572.766 10 0 60300 13500.00000 0 12064120.431 13309204.266 -18121637.533 10 0 60300 14400.00000 0 12732698.957 15305762.609 -15962063.325 10 0 60300 15300.00000 0 13449953.553 16979762.923 -13492811.697 10 0 60300 16200.00000 0 14160836.311 18303160.108 -10761830.289 10 0 60300 17100.00000 0 14807543.617 19260628.890 -7822123.007 10 0 60300 18000.00000 0 15332088.455 19849984.050 -4730723.451 10 0 60300 18900.00000 0 15678894.986 20082063.226 -1547591.343 10 0 60300 19800.00000 0 15797306.140 19980078.446 1665546.901 10 0 60300 20700.00000 0 15643898.602 19578464.591 4846391.088 10 0 60300 21600.00000 0 15184507.579 18921273.968 7933270.709 10 0 60300 22500.00000 0 14395875.849 18060184.940 10866335.857 10 0 60300 23400.00000 0 13266857.252 17052208.641 13588712.701 10 0 60300 24300.00000 0 11799123.349 15957190.208 16047601.471 10 0 60300 25200.00000 0 10007342.585 14835209.386 18195296.079 10 0 60300 26100.00000 0 7918823.271 13743989.471 19990106.019 10 0 60300 27000.00000 0 5572633.800 12736423.009 21397163.157 10 0 60300 27900.00000 0 3018235.213 11858317.754 22389098.191 10 0 60300 28800.00000 0 313681.360 11146457.181 22946573.936 10 0 60300 29700.00000 0 -2476540.179 10627056.728 23058665.230 10 0 60300 30600.00000 0 -5283938.358 10314680.566 22723077.946 10 0 60300 31500.00000 0 -8038620.609 10211664.558 21946202.470 10 0 60300 32400.00000 0 -10671959.663 10308070.054 20742999.954 10 0 60300 33300.00000 0 -13119215.394 10582171.024 19136722.629 10 0 60300 34200.00000 0 -15322003.289 11001454.714 17158472.639 10 0 60300 35100.00000 0 -17230507.098 11524094.304 14846606.864 10 0 60300 36000.00000 0 -18805343.497 12100832.004 12245998.333 10 0 60300 36900.00000 0 -20019000.753 12677193.407 9407167.850 10 0 60300 37800.00000 0 -20856791.034 13195939.469 6385302.260 10 0 60300 38700.00000 0 -21317276.310 13599652.057 3239178.358 10 0 60300 39600.00000 0 -21412150.009 13833342.881 30013.745 10 0 60300 40500.00000 0 -21165579.659 13846974.294 -3179732.336 10 0 60300 41400.00000 0 -20613038.771 13597783.957 -6327583.889 10 0 60300 42300.00000 0 -19799678.030 13052313.582 -9352273.767 10 0 60300 43200.00000 0 -18778305.573 12188054.551 -12194944.972 10 0 60300 44100.00000 0 -17607062.711 10994639.623 -14800303.243 10 0 60300 45000.00000 0 -16346894.373 9474529.338 -17117697.648 10 0 60300 45900.00000 0 -15058921.949 7643163.370 -19102107.689 10 0 60300 46800.00000 0 -13801830.043 5528569.776 -20715017.583 10 0 60300 47700.00000 0 -12629377.627 3170448.105 -21925160.929 10 0 60300 48600.00000 0 -11588138.326 618764.426 -22709121.825 10 0 60300 49500.00000 0 -10715564.465 -2068083.344 -23051781.522 10 0 60300 50400.00000 0 -10038455.468 -4825453.526 -22946602.772 10 0 60300 51300.00000 0 -9571893.888 -7584911.450 -22395747.281 10 0 60300 52200.00000 0 -9318692.502 -10276841.476 -21410024.745 10 0 60300 53100.00000 0 -9269374.379 -12833112.314 -20008675.156 10 0 60300 54000.00000 0 -9402685.526 -15189685.708 -18218989.029 10 0 60300 54900.00000 0 -9686617.389 -17289061.056 -16075773.181 10 0 60300 55800.00000 0 -10079895.338 -19082455.382 -13620672.508 10 0 60300 56700.00000 0 -10533869.767 -20531629.127 -10901360.842 10 0 60300 57600.00000 0 -10994729.728 -21610282.940 -7970616.401 10 0 60300 58500.00000 0 -11405945.544 -22304968.409 -4885299.580 10 0 60300 59400.00000 0 -11710837.290 -22615475.877 -1705252.703 10 0 60300 60300.00000 0 -11855160.793 -22554684.237 1507857.156 10 0 60300 61200.00000 0 -11789602.024 -22147879.897 4691729.976 10 0 60300 62100.00000 0 -11472074.630 -21431574.253 7784636.289 10 0 60300 63000.00000 0 -10869723.534 -20451869.809 10726609.269 10 0 60300 63900.00000 0 -9960549.830 -19262443.803 13460602.484 10 0 60300 64800.00000 0 -8734587.984 -17922234.060 15933591.231 10 0 60300 65700.00000 0 -7194584.984 -16492924.007 18097596.491 10 0 60300 66600.00000 0 -5356151.791 -15036332.037 19910612.076 10 0 60300 67500.00000 0 -3247379.293 -13611814.237 21337417.470 10 0 60300 68400.00000 0 -907933.168 -12273788.783 22350261.045 10 0 60300 69300.00000 0 1612336.399 -11069485.208 22929400.675 10 0 60300 70200.00000 0 4255214.082 -10037012.380 23063491.397 10 0 60300 71100.00000 0 6956293.997 -9203825.749 22749812.498 10 0 60300 72000.00000 0 9647420.761 -8585657.971 21994329.198 10 0 60300 72900.00000 0 12259296.978 -8185957.735 20811587.108 10 0 60300 73800.00000 0 14724149.916 -7995860.523 19224440.623 10 0 60300 74700.00000 0 16978347.157 -7994692.830 17263619.491 10 0 60300 75600.00000 0 18964852.714 -8150988.967 14967140.935 10 0 60300 76500.00000 0 20635421.277 -8423977.871 12379577.760 10 0 60300 77400.00000 0 21952438.710 -8765477.342 9551195.926 10 0 60300 78300.00000 0 22890331.490 -9122115.567 6536977.900 10 0 60300 79200.00000 0 23436485.639 -9437785.547 3395550.674 10 0 60300 80100.00000 0 23591636.293 -9656227.854 188039.654 10 0 60300 81000.00000 0 23369711.477 -9723631.236 -3023128.606 10 0 60300 81900.00000 0 22797136.854 -9591139.702 -6175450.594 10 0 60300 82800.00000 0 21911631.251 -9217158.445 -9207571.961 10 0 60300 83700.00000 0 20760544.495 -8569359.585 -12060490.550 10 0 60300 84600.00000 0 19398808.559 -7626301.518 -14678711.902 10 0 60300 85500.00000 0 17886589.447 -6378592.226 -17011333.864 99